User: anonymous   Login
Location: ??????
(41.3164°N, 22.6615°E)
Time: 15:07:25
(UTC+00:00)
Language:

Cosmos 2150 Rocket - Orbit

View from above orbital plane
View from above orbital plane
View from above satellite
View from above satellite

Ground track
Ground track

The orbit data is extracted from the following two-line orbital elements,

1 21419U 91041B   22023.67742941  .00000068  00000-0  33501-4 0  9991
2 21419  74.0398 103.6558 0041520 338.7769  21.1658 14.34037597601152
Epoch (UTC): 23 January 2022 16:15:29
Eccentricity: 0.0041520
inclination: 74.0398°
perigee height: 748 km
apogee height: 808 km
right ascension of ascending node: 103.6558°
argument of perigee: 338.7769°
revolutions per day: 14.34037597
mean anomaly at epoch: 21.1658°
orbit number at epoch: 60115

The dashed part of the orbit path shows where the satellite is in the earth's shadow,  

DLR